Grand Prairie, TX

3:36 PM CDT on May 29, 2017 (GMT -0500)
Grand Prairie Municipal

Weather History for KGPM - December, 2013

Change the Weather History Date:

Tuesday, December 3, 2013

  Actual Average (KRBD) Record (KRBD)
Temperature  
Mean Temperature 58 °F -  
Max Temperature 75 °F 58 °F 88 °F (2005)
Min Temperature 42 °F 41 °F 28 °F (2006)
Degree Days  
Heating Degree Days 6    
Growing Degree Days 8 (Base 50)    
Moisture  
Dew Point 39 °F    
Average Humidity 59    
Maximum Humidity 87    
Minimum Humidity 22    
Precipitation  
Precipitation 0.00 in - - ()
Sea Level Pressure  
Sea Level Pressure 29.62 in    
Wind  
Wind Speed 3 mph (SSW)    
Max Wind Speed 12 mph    
Max Gust Speed -    
Visibility 10 miles    
Events      
Averages and records for this station are not official NWS values.
T = Trace of Precipitation, MM = Missing Value Source: NWS Daily Summary

Daily Weather History Graph

Daily Weather History Graph

Search for Another Location

Airport or City:

Trip Planner

Search our weather history database for the weather conditions in past years. The results will help you decide how hot, cold, wet, or windy it might be!

Date:

Astronomy

Dec. 03, 2013 Rise Set
Actual Time 7:14 AM CST 5:21 PM CST
Civil Twilight 6:47 AM CST 5:48 PM CST
Nautical Twilight 6:16 AM CST 6:19 PM CST
Astronomical Twilight 5:47 AM CST 6:49 PM CST
Moon 7:46 AM CST (12/3) 6:25 PM CST (12/3)
Length of Visible Light 11h 01m
Length of Day
10h 07m
New Moon, 1% of the Moon is Illuminated
Dec 3
New Moon
Dec 9
First Quarter
Dec 17
Full
Dec 25
Last Quarter
Jan 1
New

Hourly Weather History & Observations

Time (CST) Temp. Windchill Dew Point Humidity Pressure Visibility Wind Dir Wind Speed Gust Speed Precip Events Conditions
12:15 AM 50.0 °F - 39.2 °F 66% 29.70 in 10.0 mi SSW 3.5 mph - N/A   Clear
12:35 AM 50.0 °F - 39.2 °F 66% 29.69 in 10.0 mi SSW 5.8 mph - N/A   Clear
12:55 AM 50.0 °F - 39.2 °F 66% 29.68 in 10.0 mi Calm Calm - N/A   Clear
1:15 AM 46.4 °F - 39.2 °F 76% 29.68 in 10.0 mi Calm Calm - N/A   Clear
1:35 AM 44.6 °F - 39.2 °F 81% 29.67 in 10.0 mi Calm Calm - N/A   Clear
1:55 AM 46.4 °F - 39.2 °F 76% 29.66 in 10.0 mi Calm Calm - N/A   Clear
2:15 AM 46.4 °F - 39.2 °F 76% 29.66 in 10.0 mi Calm Calm - N/A   Clear
2:35 AM 42.8 °F - 37.4 °F 81% 29.65 in 10.0 mi Calm Calm - N/A   Clear
2:55 AM 44.6 °F - 39.2 °F 81% 29.63 in 10.0 mi Calm Calm - N/A   Clear
3:15 AM 42.8 °F - 37.4 °F 81% 29.63 in 10.0 mi Calm Calm - N/A   Clear
3:35 AM 44.6 °F - 39.2 °F 81% 29.63 in 10.0 mi Calm Calm - N/A   Clear
3:55 AM 44.6 °F - 41.0 °F 87% 29.63 in 10.0 mi Calm Calm - N/A   Clear
4:15 AM 44.6 °F 42.2 °F 41.0 °F 87% 29.63 in 10.0 mi SW 4.6 mph - N/A   Clear
4:35 AM 44.6 °F - 41.0 °F 87% 29.63 in 10.0 mi Calm Calm - N/A   Clear
4:55 AM 44.6 °F - 39.2 °F 81% 29.62 in 10.0 mi Calm Calm - N/A   Clear
5:15 AM 44.6 °F - 41.0 °F 87% 29.61 in 10.0 mi Calm Calm - N/A   Clear
5:35 AM 44.6 °F - 37.4 °F 76% 29.61 in 10.0 mi Calm Calm - N/A   Clear
5:55 AM 42.8 °F - 39.2 °F 87% 29.60 in 10.0 mi Calm Calm - N/A   Clear
8:50 AM 50.0 °F - 42.8 °F 76% 29.63 in 10.0 mi SSW 11.5 mph - N/A   Clear
9:50 AM 57.2 °F - 42.8 °F 59% 29.64 in 10.0 mi SSW 9.2 mph - N/A   Clear
10:50 AM 64.4 °F - 37.4 °F 37% 29.63 in 10.0 mi SW 9.2 mph - N/A   Clear
11:50 AM 69.8 °F - 32.0 °F 25% 29.61 in 10.0 mi SW 11.5 mph - N/A   Clear
12:50 PM 69.8 °F - 32.0 °F 25% 29.58 in 10.0 mi SW 11.5 mph - N/A   Clear
1:50 PM 73.4 °F - 32.0 °F 22% 29.55 in 10.0 mi SW 6.9 mph - N/A   Clear
2:50 PM 75.2 °F - 35.6 °F 24% 29.55 in 10.0 mi South 6.9 mph - N/A   Clear
3:50 PM 75.2 °F - 35.6 °F 24% 29.55 in 10.0 mi Calm Calm - N/A   Clear
4:50 PM 69.8 °F - 39.2 °F 33% 29.56 in 10.0 mi Calm Calm - N/A   Clear
5:50 PM 66.2 °F - 37.4 °F 35% 29.57 in 10.0 mi Calm Calm - N/A   Clear
8:15 PM 62.6 °F - 35.6 °F 37% 29.60 in 10.0 mi SSW 5.8 mph - N/A   Clear
8:35 PM 62.6 °F - 37.4 °F 39% 29.60 in 10.0 mi SSW 6.9 mph - N/A   Clear
8:55 PM 60.8 °F - 37.4 °F 42% 29.61 in 10.0 mi SSW 6.9 mph - N/A   Clear
9:15 PM 60.8 °F - 39.2 °F 45% 29.61 in 10.0 mi SSW 6.9 mph - N/A   Clear
9:35 PM 60.8 °F - 39.2 °F 45% 29.61 in 10.0 mi SSW 5.8 mph - N/A   Clear
9:55 PM 59.0 °F - 39.2 °F 48% 29.62 in 10.0 mi South 4.6 mph - N/A   Clear
10:15 PM 59.0 °F - 39.2 °F 48% 29.62 in 10.0 mi South 3.5 mph - N/A   Clear
10:35 PM 57.2 °F - 41.0 °F 55% 29.62 in 10.0 mi South 4.6 mph - N/A   Clear
10:55 PM 55.4 °F - 41.0 °F 58% 29.62 in 10.0 mi South 3.5 mph - N/A   Clear
11:15 PM 55.4 °F - 41.0 °F 58% 29.62 in 10.0 mi SSW 6.9 mph - N/A   Clear
11:35 PM 55.4 °F - 41.0 °F 58% 29.62 in 10.0 mi SSW 6.9 mph - N/A   Clear
11:55 PM 55.4 °F - 41.0 °F 58% 29.62 in 10.0 mi SSW 6.9 mph - N/A   Clear